Find Starlink 5037

NORAD ID: 53896 Int'l Des: 2022-119 Owner: SPXS Country: US Constellation: starlink operational
LEOCIRCULAR

現在のビュー

3D地球を読み込み中...

About Starlink 5037

Starlink 5037 (NORAD 53896) is a starlink constellation satellite (v1.5) launched Sep 24, 2022 by SPXS of US. It operates in LEO, CIRCULAR orbit with a mass of 305.00 kg.

Starlink 5037について

説明を読み込み中...

次回通過

Passes for default location (London). Set your location on the main map for personalized predictions.

高度履歴

Loading altitude history...

軌道要素

1 53896U 22119L 26166.50479071 .00000243 00000-0 33344-4 0 9990
2 53896 53.1601 244.7623 0001034 83.9959 276.1150 15.08830428206456
Epoch: Jun 15, 2026 • Age: 6 hours

現在のステータス

高度 541.2 km
速度 7.59 km/s
衛星直下点 -3.20°S, 103.35°W
打ち上げ日 Sep 24, 2022
運用期間 3.7 years
タイプ internet

技術仕様

分類 Payload
質量 305.00 kg
乾燥質量 290.00 kg
総質量 305.00 kg
長さ 0.20 m
直径 2.80 m
スパン 9.00 m
形状 Box + pan
製造者 SPXS
バスタイプ Starlink
フェーズステータス In Orbit
所有者/国 SPXS/US

Most Searched